Sign-in with your pilot id or email, or register

ICAO: LZKZ Name / Country: Kosice, Barca / Slovakia
Latitude: 48.6631 Longitude: 21.2411
Total Arrivals:
Deprecated: Non-static method AirportData::getarrflights() should not be called statically, assuming $this from incompatible context in /var/www/customers/vh-7192/web/home/phpvms/core/templates/airport_info.tpl on line 18
2
Total Departures:
Deprecated: Non-static method AirportData::getdeptflights() should not be called statically, assuming $this from incompatible context in /var/www/customers/vh-7192/web/home/phpvms/core/templates/airport_info.tpl on line 21
3
Latest Arrival: MTA810 (LHBP-LZKZ) Tibor Berces Latest Departure: MTA811 (LZKZ-LHBP) Laszlo Bartucz
Metar: LZKZ 211230Z 27005KT 240V320 CAVOK 15/02 Q1024 NOSIG
More info

Charts for LZKZ


NOTAM


Warning: file_get_contents(http://api.vateud.net/notams/LZKZ.json): failed to open stream: HTTP request failed! HTTP/1.1 404 Not Found in /var/www/customers/vh-7192/web/home/phpvms/core/common/NOTAMSData.class.php on line 18

Warning: Invalid argument supplied for foreach() in /var/www/customers/vh-7192/web/home/phpvms/core/common/NOTAMSData.class.php on line 22

Kosice, Barca